Back to race calendar

Frank Hodson Saddleworth 6, nr. Oldham, Lancs

12th August 2009

Results courtesy of Brian Varley for Saddleworth 6. Updated 18/8/09
(This is a sortable table - click column heading)
Filter (choose one only!)
Surname:
Cat: Club:
PosNumForenameSurnameCatClubTime
1870GarethRAVENMSale Harriers00:29:07
2843AndiJONESMSalford00:29:13
3847IanGRIMEMNewham & Essex Beagles00:30:41
4859JoeBAILEYMSalford00:31:05
5858BenRIDDELLMSalford00:31:37
6863JasonDUNKERLEYMEast Cheshire Harriers00:32:19
7891MikeMANNINGSMOldham & Royton Harriers00:32:31
8932PaulGREENMSale Harriers00:32:36
9837JanPICHLMSalford00:32:43
10743PaulSIMONM40Salford00:33:19
11875DavidLOCKETTM40Salford00:33:28
12835Michael-CraigKEEDYMSt Theresas00:33:31
13894SimonGRUNDYM40East Cheshire Harriers00:33:52
14848DarrenMORANMSalford00:33:59
15890JonDANCEM 00:34:02
16888AndyKAYMSalford00:34:09
17756GavinHILLM 00:34:37
18857TessWALKERFSalford00:34:45
19950AdamKINGMSaddleworth Runners00:35:03
20882MatthewMERSONMEast Cheshire Harriers00:35:17
21808MikkoKURONENM50East Cheshire Harriers00:35:21
22823JamesO'CONNORM40Middleton Harriers00:35:32
23872OwenFLAGEMOldham & Royton Harriers00:35:38
24844PaulBARRETTMSale Harriers00:35:45
25860GrahamCHESTERSM40Middleton Harriers00:35:53
26499StuartHULMEMRoyton Road Runners00:36:35
27850DaleDANIELSMSalford00:36:37
28841DaveKERSHAWMRoyton Road Runners00:36:41
29945DamianCOLEMHalifax Harriers00:36:57
30986RyanLINDSAYM 00:36:59
31983SeanCORDELLM40Salford00:37:08
32754BernardCASSIDYM50Royton Road Runners00:37:12
33856JohnREILLYM50Middleton Harriers00:37:18
34725Sarah LoiuseCUMBERFHalifax Harriers00:37:25
35726GeoffCUMBERM60Halifax Harriers00:37:30
36889BernieGOODWINM40Royton Road Runners00:38:02
37946AlbertSTEELEMMiddleton Harriers00:38:05
38908NigelSEDMANM40Belle Vue Racers00:38:07
39994JamesCORRIGANMBelle Vue Racers00:38:13
40861MalcolmBOSTOCKM40Middleton Harriers00:38:21
41931NathanTOWNLEYM 00:38:23
42784StephenRIGGM 00:38:26
43730BarryGREAVESM50Royton Road Runners00:38:39
44817ColinGREENMRoyton Road Runners00:38:55
45965DerekHUGHESM40East Cheshire Harriers00:38:58
46747DavidSMITHM40Oldham & Royton Harriers00:39:02
47885BryanLAWTONM40Royton Road Runners00:39:05
48937AndyFARLEYM50East Cheshire Harriers00:39:09
49876PeterWHITEM50Salford00:39:21
50765JohnCOSTELLOM40 00:39:26
51792RonaldWARRENDERM50Salford00:39:28
52806Paul StephenKENNYM40East Cheshire Harriers00:39:32
53831BillBALMERM40 00:39:33
54834SimonSMITHM40Oldham & Royton Harriers00:39:34
55864EdwardBROWNMHolmfirth Harriers00:39:40
56855AnthonyLOWEM40Middleton Harriers00:39:42
57832RolandROBSONM50Middleton Harriers00:39:45
58897DonGREENM50East Cheshire Harriers00:39:57
59919PaulCOLLINGEM50Middleton Harriers00:39:59
60867DavidWHITTAMM40Royton Road Runners00:40:00
61866EamonnNOLANM40Royton Road Runners00:40:05
62898PeterDOHERTYM40 00:40:07
63987DavidHALLM40Royton Road Runners00:40:13
64909AlisonSEDMANFBelle Vue Racers00:40:16
65778GarethBURRELLMHalifax Harriers00:40:18
66993StephenWEBBMBelle Vue Racers00:40:26
67741EricGREENM50Valley Striders00:40:28
68952KevinDUCKWORTHM50Saddleworth Runners00:40:33
69819NicholasKENNETTM40Ackworth Road Runners00:40:39
70713RaymondMCARTHURM50Meltham AC00:40:58
71949MarkHADFIELDMMiddleton Harriers00:40:59
72963GaryCOXONM50East Cheshire Harriers00:41:00
73985LeeWOODM 00:41:01
74821RichardBUTTERWICKMTodmorden Harriers00:41:02
75970JamesCHAMBERSM 00:41:03
76881ChrisEAVERSM50Royton Road Runners00:41:07
77879JamesTROLLOPEMRoyton Road Runners00:41:12
78853TomTEMPLEM50Salford00:41:14
79771PaulCACHELIN-STEPHENSM 00:41:15
80768DavidGILLIANMAbbey Runners00:41:16
81871MichaelTINKERM 00:41:18
82807DavidBEVANM40Saddleworth Runners00:41:33
83943RichardCORNEYM40Halifax Harriers00:41:49
84956CliveHOPEM50 00:41:58
85814SarahNEWMANFTrafford AC00:41:58
86960MikeHARRISONM40Meltham AC00:42:02
87892DarrenMANNINGSM40Oldham & Royton Harriers00:42:15
88849TomDANIELSM60Salford00:42:18
89781JamesSTABLESM 00:42:22
90921DavidDARTONM50Knavesmire Harriers00:42:24
91982RobertANDERSONM40 00:42:32
92948PennyDITCHFIELDFMeltham AC00:42:36
93915KenHOUGHTON-WALSHM40 00:42:38
94780TomSNAITHM40Belle Vue Racers00:42:42
95910JamesHOLDAWAYMRoyton Road Runners00:42:58
96838JeffCORDWELLM50Royton Road Runners00:43:03
97904SeanWHITEHEADM 00:43:06
98916AndyROBERTSM40Belle Vue Racers00:43:18
99971JohnBROWNM60 00:43:19
100815David ASMITHM50Royton Road Runners00:43:20
101976MatthewKILBURNM40 00:43:22
102839StevenVASILIOUM50Middleton Harriers00:43:25
103886WesleyYOUNGM 00:43:28
104927LeeMILLSMBelle Vue Racers00:43:33
105752RolandBOWNESSM60Salford00:43:38
106766MichaelHOWARDM40Spenborough00:43:44
107914MichaelLUNNM40Meltham AC00:43:47
108873BarryCUNLIFFEM60 00:43:51
109974EmilyHUGHESFMiddleton Harriers00:43:57
110958DBARKERM 00:43:59
111767RobinMCRAEM 00:44:03
112770SteveCOOTEM50Vegetarian C & AC00:44:09
113911DaveBALLM50Middleton Harriers00:44:17
114979GedNAVESEYM40Royton Road Runners00:44:22
115703AndyHARGREAVESM50Meltham AC00:44:28
116776BarryHEALDM 00:44:29
117715JamesFAIRFIELDM40East Cheshire Harriers00:44:31
118955TonyHOUGHTONM40Belle Vue Racers00:44:35
119797JonPARAMORM50Manchester YMCA00:44:40
120816JohnSWEENEYMRoyton Road Runners00:44:49
121922DezMITCHELLM 00:44:52
122902KarlMARTINMStainland Lions00:44:54
123968AngelaOLDHAMF55 00:44:55
124739KatieHALLF 00:45:01
125772BarryGUYM50Belle Vue Racers00:45:04
126865WilliamMURGATROYDM50 00:45:05
127732AngelaTHEWLISF 00:45:11
128751AnnetteBOWDENF 00:45:13
129988KatyPERREAULTFManchester Harriers00:45:19
130836MarkKELLYMRoyton Road Runners00:45:21
131923MikeFAGGMEast Cheshire Harriers00:45:33
132845KeithSMITHM50 00:45:34
133977PaulBAMFORDM 00:45:36
134962JanetGRINTFEast Cheshire Harriers00:45:38
135759AnnieHIRSCHF45Belle Vue Racers00:45:41
136787MarkHOATHMMeltham AC00:45:56
137913JeffreyTAYLORM70Meltham AC00:46:00
138842KathJONESFSale Harriers00:46:00
139887JCARTERF45Spenborough00:46:03
140862MelanieSYKESFMeltham AC00:46:15
141783Keith RogerPEALINM50Middleton Harriers00:46:19
142925PeterMCELHATTONM50 00:46:20
143840SimonMOORHOUSEM40Buxton AC00:46:21
144966ShaneREADINGMRoyton Road Runners00:46:22
145935LindaEVANSFRochdale Harriers00:46:24
146825StephenWILBYM50Queensbury RC00:46:25
147852BobHORROCKSM60Middleton Harriers00:46:27
148829TonyWOODSM40 00:46:28
149851AlanROMAGNOLOM40Sale Harriers00:46:29
150854JonathanGILBERTSONM 00:46:31
151980AnthonyGREENM 00:46:32
152884GeraldineROBYF45Halifax Harriers00:46:36
153944SusanCORNEYF55Halifax Harriers00:46:42
154728ChristineBROOKSF55Middleton Harriers00:46:43
155824TonyLYTHEM60Sale Harriers00:46:48
156794IanDIGWEEDM40 00:47:09
157731JohnROBERTM50 00:47:12
158868BonuslavBARLOWM60Todmorden Harriers00:47:15
159782AsaCOCKERM 00:47:21
160969JennyCLINKFSale Harriers00:47:29
161906AnthonyKANEM50Royton Road Runners00:47:40
162800EddieCOMBSM 00:47:41
163895KyrindaHURST MOOREFMiddleton Harriers00:47:44
164957PaulMARSHM 00:47:45
165779ChristopherBURRELLM50Halifax Harriers00:47:46
166810MatthewWILSONM 00:47:48
167760GrahamLAWLERM50East Cheshire Harriers00:47:51
168801AndrewCOMBSM40 00:47:53
169941KateINSTONEFRoyton Road Runners00:47:58
170940MatthewNEWALLMRoyton Road Runners00:47:59
171775WarwickLEYM 00:48:07
172746StevenHOWARDM 00:48:09
173818GeoffDONNELLYM40 00:48:11
174995SharonLEVERFSaddleworth Runners00:48:14
175757SidBAILEYM50Deestriders00:48:20
176991KristelJONESF 00:48:23
177789HeatherMITCHELLF55Dewsbury Road Runners00:48:25
178702TeresaHOLLINSF55Middleton Harriers00:48:28
179967SteveHAYESM50Royton Road Runners00:48:33
180920AllanBATHOM50East Cheshire Harriers00:48:38
181907AdrianBOWCOCKM40Middleton Harriers00:48:42
182753CaroleBOWNESSF55Middleton Harriers00:48:59
183740JohnLAMBEM40Royton Road Runners00:49:00
184947MartinLOMASM40Middleton Harriers00:49:05
185874MichaelBUCKM60Middleton Harriers00:49:09
186830KeithRANTM50Road Runners Club00:49:10
187961PhillipBEACHM 00:49:11
188708LeeCARSONMFetch Everyone rc00:49:12
189737SteveLOVATTM40 00:49:17
190939RonHILLM70Clayton le Moors00:49:22
191924NFAGGM40East Cheshire Harriers00:49:24
192975ValerieKILBURNF 00:49:28
193500TonyHUNKINGM50Royton Road Runners00:49:37
194738SteveMCFARLANEM40 00:49:45
195820ColinTIMPSONM60East Cheshire Harriers00:49:50
196880ClairePLUNKETTFHalifax Harriers00:49:52
197813JennyPOOLEF45Middleton Harriers00:49:55
198790RoseROWSONF45Middleton Harriers00:49:58
199912AnnCHERRYF45East Cheshire Harriers00:50:06
200903MaggieMCCLELLANDF45Swinton00:50:10
201918DamianBATESM 00:50:12
202 PeterHUXLEYMMiddleton Harriers00:50:12
203755CarolineBRODERICKF 00:50:18
204934JoanneSULLIVANFMiddleton Harriers00:50:20
205964TinaHICKSFBelle Vue Racers00:50:30
206791LouiseGILCHRISTF65Valley Striders00:50:32
207763TrevorGRUNDYM60Royton Road Runners00:50:48
208905PaulTAYLORM50Oldham & Royton Harriers00:50:50
209745SusanBROOKSF45 00:50:51
210992ElaineHELMEFNorthern Vets00:51:02
211723DonnaSIBERRYF 00:51:22
212933EricaWEAVERFMiddleton Harriers00:51:25
213769SharonCRAWFORDFSalford00:51:37
214758DeeO'NEILLFBelle Vue Racers00:51:39
215803AndyFOXM50 00:51:45
216804KeithDIMELOWM 00:51:58
217811KateWEBBF 00:52:34
218802JoanCOMBSF 00:52:35
219798SusanCLAPHAMFGlossopdale Harriers00:52:36
220989JANICEGUESTF55Saddleworth Runners00:52:40
221712FionaMCARTHURF55Meltham AC00:52:41
222917LucyBATESF 00:52:52
223990PeterDEANM 00:53:00
224951DerekMITCHELLM60Eccleshill Road Runners00:53:14
225764anneWEBSTERF45Belle Vue Racers00:53:20
226809PeterWEBBM50 00:53:27
227833DerekBURYM70Middleton Harriers00:53:36
228826KevinTAYLORM50 00:53:53
229972LorraineTHURSTONF45Saddleworth Runners00:53:54
230899MelanieKAYFEast Cheshire Harriers00:54:19
231795MichaelaKASPROWICZF 00:54:23
232793TomKASPROWICZM40Road Runners Club00:54:23
233928JuliaFOYFBelle Vue Racers00:54:29
234711BarbaraPILLINGF55 00:54:32
235799Eric MarkJONESM50 00:54:33
236938HelenGILSONF 00:54:36
237930ChristineECKERSLEYF55Middleton Harriers00:54:37
238926DanielKEARNSM 00:54:42
239984PaulaMAYF 00:54:53
240796BrentARMISTEADM50 00:55:10
241727JaneGLEESONF45 00:55:30
242721FrankFINNIGANM40 00:55:37
243893NatalieMANNINGSFOldham & Royton Harriers00:55:40
244877JulieLUCKMANF 00:55:42
245748StellaHUGHESF 00:55:48
246878BobMONTGOMERYM70 00:56:43
247959RichardBOTTOMM40Stadium Runners00:56:57
248722SusanBRADBURYF45 00:57:06
249734GrahamBENTONM50Maltby RC00:57:10
250954KevinEGERTONM50Belle Vue Racers00:57:18
251705ChrisBYROMM60East Cheshire Harriers00:57:21
252953BrianROBERTSM60Belle Vue Racers00:57:26
253896StephenMARKHAMM50Middleton Harriers00:57:42
254981JohnTYNANM40 00:57:48
255929JanicePUGHF45Middleton Harriers00:57:49
256749ChristineCOMERFORDF45 00:57:53
257704AlisonHARGREAVESF45Meltham AC00:57:57
258720ShelaghACKERSF45Middleton Harriers00:58:00
259761CatherinePEMBERTONF45 00:58:16
260828SandraHUTCHINSONF45Middleton Harriers00:58:39
261973LouiseROBINSONF 00:59:02
262827AngelaCONNOLLYF 00:59:55
263750BrianBEALM60Middleton Harriers01:00:07
264822RodBERRYM70Kendal AAC01:00:56
265936LouiseFARLEYF 01:02:00
266762FrancesPEMBERTONF 01:02:02
267900KayFITTONFRoyton Road Runners01:02:44
268774FionaSUTHERLANDF 01:02:47
269901JuneALLINGANF65Royton Road Runners01:02:57
270773JaneHAXBYF 01:02:59
271942AlanMARSHALLM50Royton Road Runners01:03:00
272869IanSTANSFIELDM60Todmorden Harriers01:03:09
273744BrianHURSTM70Royton Road Runners01:20:21
Back to year index - Top of page